Time,TemperatureF,DewpointF,PressureIn,WindDirection,WindDirectionDegrees,WindSpeedMPH,WindSpeedGustMPH,Humidity,HourlyPrecipIn,Conditions,Clouds,dailyrainin,SoftwareType,DateUTC
2013-03-17 00:00:00,28.0,11.3,29.90,NE,53,0.0,0.0,49,0.00,,,0.00,WeatherCatV1.11B39,2013-03-17 04:00:00,
2013-03-17 00:01:00,27.8,11.6,29.90,NE,53,0.0,0.0,50,0.00,,,0.00,WeatherCatV1.11B39,2013-03-17 04:01:00,
2013-03-17 00:06:00,27.7,12.0,29.90,NE,53,0.0,0.0,51,0.00,,,0.00,WeatherCatV1.11B39,2013-03-17 04:06:00,
2013-03-17 00:11:00,27.5,11.8,29.90,NE,53,0.0,0.0,51,0.00,,,0.00,WeatherCatV1.11B39,2013-03-17 04:11:00,
2013-03-17 00:16:00,27.4,11.7,29.90,NE,53,0.0,0.0,51,0.00,,,0.00,WeatherCatV1.11B39,2013-03-17 04:16:00,
2013-03-17 00:21:00,27.1,11.4,29.90,NE,53,0.0,0.0,51,0.00,,,0.00,WeatherCatV1.11B39,2013-03-17 04:21:00,
2013-03-17 00:26:00,27.0,11.7,29.90,NE,53,0.0,0.0,52,0.00,,,0.00,WeatherCatV1.11B39,2013-03-17 04:26:00,
2013-03-17 00:31:00,26.7,11.5,29.90,NE,53,0.0,0.0,52,0.00,,,0.00,WeatherCatV1.11B39,2013-03-17 04:31:00,
2013-03-17 00:36:00,26.5,12.1,29.90,NE,53,0.0,0.0,54,0.00,,,0.00,WeatherCatV1.11B39,2013-03-17 04:36:00,
2013-03-17 00:41:00,26.4,12.5,29.90,NE,53,0.0,0.0,55,0.00,,,0.00,WeatherCatV1.11B39,2013-03-17 04:41:00,
2013-03-17 00:46:00,26.2,12.3,29.90,NE,53,0.0,0.0,55,0.00,,,0.00,WeatherCatV1.11B39,2013-03-17 04:46:00,
2013-03-17 00:51:00,26.2,13.9,29.90,NE,53,0.0,0.0,59,0.00,,,0.00,WeatherCatV1.11B39,2013-03-17 04:51:00,
2013-03-17 00:56:00,26.1,14.1,29.90,NE,53,0.0,0.0,60,0.00,,,0.00,WeatherCatV1.11B39,2013-03-17 04:56:00,
2013-03-17 01:01:00,25.9,14.3,29.91,NE,53,0.0,0.0,61,0.00,,,0.00,WeatherCatV1.11B39,2013-03-17 05:01:00,
2013-03-17 01:06:00,25.8,14.2,29.91,NE,53,0.0,0.0,61,0.00,,,0.00,WeatherCatV1.11B39,2013-03-17 05:06:00,
2013-03-17 01:11:00,25.5,14.3,29.91,NE,53,0.0,0.0,62,0.00,,,0.00,WeatherCatV1.11B39,2013-03-17 05:11:00,
2013-03-17 01:16:00,25.2,14.4,29.91,NE,53,0.0,0.0,63,0.00,,,0.00,WeatherCatV1.11B39,2013-03-17 05:16:00,
2013-03-17 01:21:00,24.9,14.1,29.91,NE,53,0.0,0.0,63,0.00,,,0.00,WeatherCatV1.11B39,2013-03-17 05:21:00,
2013-03-17 01:26:00,24.7,13.6,29.91,NE,53,0.0,0.0,62,0.00,,,0.00,WeatherCatV1.11B39,2013-03-17 05:26:00,
2013-03-17 01:31:00,24.7,13.6,29.91,NE,53,0.0,0.0,62,0.00,,,0.00,WeatherCatV1.11B39,2013-03-17 05:31:00,
2013-03-17 01:36:00,24.6,13.5,29.91,NE,53,0.0,0.0,62,0.00,,,0.00,WeatherCatV1.11B39,2013-03-17 05:36:00,
2013-03-17 01:41:00,24.6,13.8,29.92,NE,53,0.0,0.0,63,0.00,,,0.00,WeatherCatV1.11B39,2013-03-17 05:41:00,
2013-03-17 01:46:00,24.4,13.6,29.91,NE,53,0.0,0.0,63,0.00,,,0.00,WeatherCatV1.11B39,2013-03-17 05:46:00,
2013-03-17 01:51:00,24.3,14.3,29.91,NE,53,0.0,0.0,65,0.00,,,0.00,WeatherCatV1.11B39,2013-03-17 05:51:00,
2013-03-17 01:56:00,24.0,14.0,29.91,NE,53,0.0,0.0,65,0.00,,,0.00,WeatherCatV1.11B39,2013-03-17 05:56:00,
2013-03-17 02:01:00,23.8,13.4,29.91,NE,53,0.0,0.0,64,0.00,,,0.00,WeatherCatV1.11B39,2013-03-17 06:01:00,
2013-03-17 02:06:00,23.7,13.7,29.91,NE,53,0.0,0.0,65,0.00,,,0.00,WeatherCatV1.11B39,2013-03-17 06:06:00,
2013-03-17 02:11:00,23.5,13.5,29.91,NE,53,0.0,0.0,65,0.00,,,0.00,WeatherCatV1.11B39,2013-03-17 06:11:00,
2013-03-17 02:16:00,23.5,13.5,29.91,NE,53,0.0,0.0,65,0.00,,,0.00,WeatherCatV1.11B39,2013-03-17 06:16:00,
2013-03-17 02:21:00,23.4,13.7,29.92,NE,53,0.0,0.0,66,0.00,,,0.00,WeatherCatV1.11B39,2013-03-17 06:21:00,
2013-03-17 02:26:00,23.3,14.0,29.91,NE,53,0.0,0.0,67,0.00,,,0.00,WeatherCatV1.11B39,2013-03-17 06:26:00,
2013-03-17 02:31:00,23.1,13.8,29.91,NE,53,0.0,0.0,67,0.00,,,0.00,WeatherCatV1.11B39,2013-03-17 06:31:00,
2013-03-17 02:36:00,22.9,13.6,29.91,NE,53,0.0,0.0,67,0.00,,,0.00,WeatherCatV1.11B39,2013-03-17 06:36:00,
2013-03-17 02:41:00,22.8,13.8,29.91,NE,53,0.0,0.0,68,0.00,,,0.00,WeatherCatV1.11B39,2013-03-17 06:41:00,
2013-03-17 02:46:00,22.7,13.8,29.91,NE,53,0.0,0.0,68,0.00,,,0.00,WeatherCatV1.11B39,2013-03-17 06:46:00,
2013-03-17 02:51:00,22.5,13.6,29.91,NE,53,0.0,0.0,68,0.00,,,0.00,WeatherCatV1.11B39,2013-03-17 06:51:00,
2013-03-17 02:56:00,22.2,13.6,29.91,NE,53,0.0,0.0,69,0.00,,,0.00,WeatherCatV1.11B39,2013-03-17 06:56:00,
2013-03-17 03:01:00,22.0,13.4,29.92,NE,53,0.0,0.0,69,0.00,,,0.00,WeatherCatV1.11B39,2013-03-17 07:01:00,
2013-03-17 03:06:00,21.9,13.6,29.91,NE,53,0.0,0.0,70,0.00,,,0.00,WeatherCatV1.11B39,2013-03-17 07:06:00,
2013-03-17 03:11:00,21.9,13.6,29.92,NE,53,0.0,0.0,70,0.00,,,0.00,WeatherCatV1.11B39,2013-03-17 07:11:00,
2013-03-17 03:16:00,21.9,13.6,29.91,NE,53,0.0,0.0,70,0.00,,,0.00,WeatherCatV1.11B39,2013-03-17 07:16:00,
2013-03-17 03:21:00,21.9,14.0,29.92,NE,53,0.0,0.0,71,0.00,,,0.00,WeatherCatV1.11B39,2013-03-17 07:21:00,
2013-03-17 03:26:00,21.8,13.9,29.91,NE,53,0.0,0.0,71,0.00,,,0.00,WeatherCatV1.11B39,2013-03-17 07:26:00,
2013-03-17 03:31:00,21.6,13.7,29.91,NE,53,0.0,0.0,71,0.00,,,0.00,WeatherCatV1.11B39,2013-03-17 07:31:00,
2013-03-17 03:36:00,21.4,13.5,29.92,NE,53,0.0,0.0,71,0.00,,,0.00,WeatherCatV1.11B39,2013-03-17 07:36:00,
2013-03-17 03:41:00,21.5,13.6,29.92,NE,53,0.0,0.0,71,0.00,,,0.00,WeatherCatV1.11B39,2013-03-17 07:41:00,
2013-03-17 03:46:00,21.4,13.5,29.92,NE,53,0.0,0.0,71,0.00,,,0.00,WeatherCatV1.11B39,2013-03-17 07:46:00,
2013-03-17 03:51:00,21.4,13.5,29.92,NE,53,0.0,0.0,71,0.00,,,0.00,WeatherCatV1.11B39,2013-03-17 07:51:00,
2013-03-17 03:56:00,21.5,13.6,29.93,NE,53,0.0,0.0,71,0.00,,,0.00,WeatherCatV1.11B39,2013-03-17 07:56:00,
2013-03-17 04:01:00,21.4,13.8,29.93,NE,53,0.0,0.0,72,0.00,,,0.00,WeatherCatV1.11B39,2013-03-17 08:01:00,
2013-03-17 04:06:00,21.5,13.9,29.93,NE,53,0.0,0.0,72,0.00,,,0.00,WeatherCatV1.11B39,2013-03-17 08:06:00,
2013-03-17 04:11:00,21.6,14.0,29.93,NE,53,0.0,0.0,72,0.00,,,0.00,WeatherCatV1.11B39,2013-03-17 08:11:00,
2013-03-17 04:16:00,21.6,14.0,29.93,NE,53,0.0,0.0,72,0.00,,,0.00,WeatherCatV1.11B39,2013-03-17 08:16:00,
2013-03-17 04:21:00,21.6,14.0,29.93,NE,53,0.0,0.0,72,0.00,,,0.00,WeatherCatV1.11B39,2013-03-17 08:21:00,
2013-03-17 04:26:00,21.6,14.0,29.92,NE,53,0.0,0.0,72,0.00,,,0.00,WeatherCatV1.11B39,2013-03-17 08:26:00,
2013-03-17 04:31:00,21.6,13.7,29.93,NE,53,0.0,0.0,71,0.00,,,0.00,WeatherCatV1.11B39,2013-03-17 08:31:00,
2013-03-17 04:36:00,21.6,14.0,29.93,NE,53,0.0,0.0,72,0.00,,,0.00,WeatherCatV1.11B39,2013-03-17 08:36:00,
2013-03-17 04:41:00,21.6,13.7,29.93,NE,53,0.0,0.0,71,0.00,,,0.00,WeatherCatV1.11B39,2013-03-17 08:41:00,
2013-03-17 04:46:00,21.6,13.7,29.93,NE,53,0.0,0.0,71,0.00,,,0.00,WeatherCatV1.11B39,2013-03-17 08:46:00,
2013-03-17 04:51:00,21.5,13.6,29.93,NE,53,0.0,0.0,71,0.00,,,0.00,WeatherCatV1.11B39,2013-03-17 08:51:00,
2013-03-17 04:56:00,21.4,13.8,29.94,NE,53,0.0,0.0,72,0.00,,,0.00,WeatherCatV1.11B39,2013-03-17 08:56:00,
2013-03-17 05:01:00,21.4,13.5,29.94,NE,53,0.0,0.0,71,0.00,,,0.00,WeatherCatV1.11B39,2013-03-17 09:01:00,
2013-03-17 05:06:00,21.3,13.7,29.93,NE,53,0.0,0.0,72,0.00,,,0.00,WeatherCatV1.11B39,2013-03-17 09:06:00,
2013-03-17 05:11:00,21.3,13.4,29.94,NE,53,0.0,0.0,71,0.00,,,0.00,WeatherCatV1.11B39,2013-03-17 09:11:00,
2013-03-17 05:16:00,21.2,13.3,29.94,NE,53,0.0,0.0,71,0.00,,,0.00,WeatherCatV1.11B39,2013-03-17 09:16:00,
2013-03-17 05:21:00,21.0,13.1,29.94,NE,53,0.0,0.0,71,0.00,,,0.00,WeatherCatV1.11B39,2013-03-17 09:21:00,
2013-03-17 05:26:00,21.0,13.4,29.93,NE,53,0.0,0.0,72,0.00,,,0.00,WeatherCatV1.11B39,2013-03-17 09:26:00,
2013-03-17 05:31:00,20.8,13.2,29.94,NE,53,0.0,0.0,72,0.00,,,0.00,WeatherCatV1.11B39,2013-03-17 09:31:00,
2013-03-17 05:36:00,21.0,13.7,29.94,NE,44,0.0,0.0,73,0.00,,,0.00,WeatherCatV1.11B39,2013-03-17 09:36:00,
2013-03-17 05:41:00,21.1,13.8,29.94,NE,43,0.0,0.0,73,0.00,,,0.00,WeatherCatV1.11B39,2013-03-17 09:41:00,
2013-03-17 05:46:00,21.3,14.0,29.95,NE,44,0.0,0.0,73,0.00,,,0.00,WeatherCatV1.11B39,2013-03-17 09:46:00,
2013-03-17 05:51:00,21.3,13.7,29.95,NE,44,0.0,0.0,72,0.00,,,0.00,WeatherCatV1.11B39,2013-03-17 09:51:00,
2013-03-17 05:56:00,21.6,14.0,29.95,NE,44,0.0,0.0,72,0.00,,,0.00,WeatherCatV1.11B39,2013-03-17 09:56:00,
2013-03-17 06:01:00,21.9,14.0,29.95,NE,43,0.0,0.0,71,0.00,,,0.00,WeatherCatV1.11B39,2013-03-17 10:01:00,
2013-03-17 06:06:00,21.9,14.0,29.95,NE,43,0.0,0.0,71,0.00,,,0.00,WeatherCatV1.11B39,2013-03-17 10:06:00,
2013-03-17 06:11:00,21.9,13.6,29.95,NE,43,0.0,0.0,70,0.00,,,0.00,WeatherCatV1.11B39,2013-03-17 10:11:00,
2013-03-17 06:16:00,21.7,13.1,29.95,NE,43,0.0,0.0,69,0.00,,,0.00,WeatherCatV1.11B39,2013-03-17 10:16:00,
2013-03-17 06:21:00,21.6,13.4,29.95,NE,43,0.0,0.0,70,0.00,,,0.00,WeatherCatV1.11B39,2013-03-17 10:21:00,
2013-03-17 06:26:00,21.5,13.3,29.95,NE,43,0.0,0.0,70,0.00,,,0.00,WeatherCatV1.11B39,2013-03-17 10:26:00,
2013-03-17 06:31:00,21.3,13.4,29.95,NE,43,0.0,0.0,71,0.00,,,0.00,WeatherCatV1.11B39,2013-03-17 10:31:00,
2013-03-17 06:36:00,21.1,13.2,29.95,NE,43,0.0,0.0,71,0.00,,,0.00,WeatherCatV1.11B39,2013-03-17 10:36:00,
2013-03-17 06:41:00,21.0,12.8,29.96,NE,44,0.0,0.0,70,0.00,,,0.00,WeatherCatV1.11B39,2013-03-17 10:41:00,
2013-03-17 06:46:00,21.2,13.3,29.96,North,349,0.0,0.0,71,0.00,,,0.00,WeatherCatV1.11B39,2013-03-17 10:46:00,
2013-03-17 06:51:00,21.6,13.4,29.97,NW,315,0.0,0.0,70,0.00,,,0.00,WeatherCatV1.11B39,2013-03-17 10:51:00,
2013-03-17 06:56:00,22.0,14.1,29.97,NW,319,2.0,3.0,71,0.00,,,0.00,WeatherCatV1.11B39,2013-03-17 10:56:00,
2013-03-17 07:01:00,22.3,14.0,29.98,WNW,284,0.0,0.0,70,0.00,,,0.00,WeatherCatV1.11B39,2013-03-17 11:01:00,
2013-03-17 07:06:00,22.5,13.9,29.98,WNW,284,0.0,0.0,69,0.00,,,0.00,WeatherCatV1.11B39,2013-03-17 11:06:00,
2013-03-17 07:11:00,22.5,13.9,29.98,WNW,284,0.0,0.0,69,0.00,,,0.00,WeatherCatV1.11B39,2013-03-17 11:11:00,
2013-03-17 07:16:00,22.6,13.7,29.99,WNW,286,0.0,0.0,68,0.00,,,0.00,WeatherCatV1.11B39,2013-03-17 11:16:00,
2013-03-17 07:21:00,22.8,14.2,30.00,NW,308,0.0,1.0,69,0.00,,,0.00,WeatherCatV1.11B39,2013-03-17 11:21:00,
2013-03-17 07:26:00,22.9,13.9,30.00,WNW,292,0.0,0.0,68,0.00,,,0.00,WeatherCatV1.11B39,2013-03-17 11:26:00,
2013-03-17 07:31:00,23.1,14.1,30.00,WNW,289,0.0,0.0,68,0.00,,,0.00,WeatherCatV1.11B39,2013-03-17 11:31:00,
2013-03-17 07:36:00,23.3,14.3,30.00,WNW,288,0.0,0.0,68,0.00,,,0.00,WeatherCatV1.11B39,2013-03-17 11:36:00,
2013-03-17 07:41:00,23.4,14.4,30.00,WNW,289,0.0,1.0,68,0.00,,,0.00,WeatherCatV1.11B39,2013-03-17 11:41:00,
2013-03-17 07:46:00,23.6,14.6,30.01,WNW,294,2.0,5.0,68,0.00,,,0.00,WeatherCatV1.11B39,2013-03-17 11:46:00,
2013-03-17 07:51:00,23.7,14.4,30.02,NW,310,0.0,2.0,67,0.00,,,0.00,WeatherCatV1.11B39,2013-03-17 11:51:00,
2013-03-17 07:56:00,23.7,14.0,30.02,WNW,293,0.0,5.0,66,0.00,,,0.00,WeatherCatV1.11B39,2013-03-17 11:56:00,
2013-03-17 08:01:00,23.8,14.1,30.04,WNW,300,0.0,4.0,66,0.00,,,0.00,WeatherCatV1.11B39,2013-03-17 12:01:00,
2013-03-17 08:06:00,24.0,14.0,30.03,WNW,291,2.0,2.0,65,0.00,,,0.00,WeatherCatV1.11B39,2013-03-17 12:06:00,
2013-03-17 08:11:00,24.1,13.7,30.04,WNW,298,0.0,6.0,64,0.00,,,0.00,WeatherCatV1.11B39,2013-03-17 12:11:00,
2013-03-17 08:16:00,24.3,13.5,30.03,WNW,287,0.0,5.0,63,0.00,,,0.00,WeatherCatV1.11B39,2013-03-17 12:16:00,
2013-03-17 08:21:00,24.4,12.9,30.04,WNW,288,3.0,11.0,61,0.00,,,0.00,WeatherCatV1.11B39,2013-03-17 12:21:00,
2013-03-17 08:26:00,24.4,12.5,30.04,WNW,286,4.0,10.0,60,0.00,,,0.00,WeatherCatV1.11B39,2013-03-17 12:26:00,
2013-03-17 08:31:00,24.6,12.3,30.05,WNW,295,0.0,3.0,59,0.00,,,0.00,WeatherCatV1.11B39,2013-03-17 12:31:00,
2013-03-17 08:37:00,24.7,12.1,30.05,WNW,294,0.0,4.0,58,0.00,,,0.00,WeatherCatV1.11B39,2013-03-17 12:37:00,
2013-03-17 08:42:00,24.8,11.8,30.05,WNW,302,3.0,6.0,57,0.00,,,0.00,WeatherCatV1.11B39,2013-03-17 12:42:00,
2013-03-17 08:47:00,25.0,11.9,30.04,NNW,331,0.0,0.0,57,0.00,,,0.00,WeatherCatV1.11B39,2013-03-17 12:47:00,
2013-03-17 08:52:00,25.3,11.4,30.04,NW,312,0.0,0.0,55,0.00,,,0.00,WeatherCatV1.11B39,2013-03-17 12:52:00,
2013-03-17 08:57:00,25.6,11.7,30.04,NNW,348,0.0,0.0,55,0.00,,,0.00,WeatherCatV1.11B39,2013-03-17 12:57:00,
2013-03-17 09:02:00,25.9,11.2,30.04,North,359,0.0,0.0,53,0.00,,,0.00,WeatherCatV1.11B39,2013-03-17 13:02:00,
2013-03-17 09:07:00,26.1,10.9,30.04,North,3,0.0,3.0,52,0.00,,,0.00,WeatherCatV1.11B39,2013-03-17 13:07:00,
2013-03-17 09:12:00,26.4,11.2,30.04,NW,312,0.0,0.0,52,0.00,,,0.00,WeatherCatV1.11B39,2013-03-17 13:12:00,
2013-03-17 09:17:00,26.7,10.1,30.04,NNE,19,0.0,3.0,49,0.00,,,0.00,WeatherCatV1.11B39,2013-03-17 13:17:00,
2013-03-17 09:22:00,27.0,10.4,30.04,NNW,328,0.0,0.0,49,0.00,,,0.00,WeatherCatV1.11B39,2013-03-17 13:22:00,
2013-03-17 09:27:00,27.1,10.0,30.04,NW,308,0.0,7.0,48,0.00,,,0.00,WeatherCatV1.11B39,2013-03-17 13:27:00,
2013-03-17 09:32:00,27.1,8.6,30.04,WSW,250,2.0,8.0,45,0.00,,,0.00,WeatherCatV1.11B39,2013-03-17 13:32:00,
2013-03-17 09:37:00,27.3,9.8,30.04,WNW,284,0.0,0.0,47,0.00,,,0.00,WeatherCatV1.11B39,2013-03-17 13:37:00,
2013-03-17 09:42:00,27.4,8.9,30.05,West,276,2.0,9.0,45,0.00,,,0.00,WeatherCatV1.11B39,2013-03-17 13:42:00,
2013-03-17 09:47:00,27.5,9.0,30.04,NW,304,4.0,5.0,45,0.00,,,0.00,WeatherCatV1.11B39,2013-03-17 13:47:00,
2013-03-17 09:52:00,27.8,9.3,30.04,WNW,291,0.0,2.0,45,0.00,,,0.00,WeatherCatV1.11B39,2013-03-17 13:52:00,
2013-03-17 09:57:00,28.0,8.9,30.04,WNW,285,0.0,4.0,44,0.00,,,0.00,WeatherCatV1.11B39,2013-03-17 13:57:00,
2013-03-17 10:02:00,28.3,9.7,30.04,WNW,284,0.0,0.0,45,0.00,,,0.00,WeatherCatV1.11B39,2013-03-17 14:02:00,
2013-03-17 10:07:00,28.7,9.6,30.04,WSW,244,4.0,7.0,44,0.00,,,0.00,WeatherCatV1.11B39,2013-03-17 14:07:00,
2013-03-17 10:12:00,28.7,9.6,30.04,North,5,0.0,1.0,44,0.00,,,0.00,WeatherCatV1.11B39,2013-03-17 14:12:00,
2013-03-17 10:17:00,29.2,9.5,30.03,WNW,295,0.0,13.0,43,0.00,,,0.00,WeatherCatV1.11B39,2013-03-17 14:17:00,
2013-03-17 10:22:00,29.3,10.1,30.04,WNW,282,0.0,8.0,44,0.00,,,0.00,WeatherCatV1.11B39,2013-03-17 14:22:00,
2013-03-17 10:27:00,29.8,10.6,30.04,WNW,299,2.0,3.0,44,0.00,,,0.00,WeatherCatV1.11B39,2013-03-17 14:27:00,
2013-03-17 10:32:00,30.1,10.3,30.04,West,275,0.0,5.0,43,0.00,,,0.00,WeatherCatV1.11B39,2013-03-17 14:32:00,
2013-03-17 10:37:00,30.5,10.2,30.05,WSW,256,8.0,9.0,42,0.00,,,0.00,WeatherCatV1.11B39,2013-03-17 14:37:00,
2013-03-17 10:42:00,30.5,10.7,30.05,WNW,295,5.0,8.0,43,0.00,,,0.00,WeatherCatV1.11B39,2013-03-17 14:42:00,
2013-03-17 10:47:00,31.1,10.7,30.05,WNW,289,4.0,10.0,42,0.00,,,0.00,WeatherCatV1.11B39,2013-03-17 14:47:00,
2013-03-17 10:52:00,31.1,11.8,30.05,WNW,296,0.0,4.0,44,0.00,,,0.00,WeatherCatV1.11B39,2013-03-17 14:52:00,
2013-03-17 10:57:00,31.2,10.3,30.05,WNW,288,12.0,12.0,41,0.00,,,0.00,WeatherCatV1.11B39,2013-03-17 14:57:00,
2013-03-17 11:02:00,31.5,11.1,30.05,WNW,294,3.0,4.0,42,0.00,,,0.00,WeatherCatV1.11B39,2013-03-17 15:02:00,
2013-03-17 11:07:00,31.7,10.2,30.05,WNW,291,0.0,8.0,40,0.00,,,0.00,WeatherCatV1.11B39,2013-03-17 15:07:00,
2013-03-17 11:12:00,32.0,10.4,30.05,West,279,13.0,13.0,40,0.00,,,0.00,WeatherCatV1.11B39,2013-03-17 15:12:00,
2013-03-17 11:17:00,31.8,10.3,30.05,WNW,294,0.0,4.0,40,0.00,,,0.00,WeatherCatV1.11B39,2013-03-17 15:17:00,
2013-03-17 11:22:00,32.4,10.8,30.05,NNW,345,0.0,4.0,40,0.00,,,0.00,WeatherCatV1.11B39,2013-03-17 15:22:00,
2013-03-17 11:27:00,32.5,10.3,30.06,WNW,294,0.0,5.0,39,0.00,,,0.00,WeatherCatV1.11B39,2013-03-17 15:27:00,
2013-03-17 11:32:00,32.4,9.7,30.06,NW,310,0.0,0.0,38,0.00,,,0.00,WeatherCatV1.11B39,2013-03-17 15:32:00,
2013-03-17 11:37:00,32.6,10.4,30.06,WNW,289,5.0,8.0,39,0.00,,,0.00,WeatherCatV1.11B39,2013-03-17 15:37:00,
2013-03-17 11:42:00,32.7,9.9,30.05,WNW,303,2.0,15.0,38,0.00,,,0.00,WeatherCatV1.11B39,2013-03-17 15:42:00,
2013-03-17 11:47:00,32.7,9.3,30.05,North,353,0.0,8.0,37,0.00,,,0.00,WeatherCatV1.11B39,2013-03-17 15:47:00,
2013-03-17 11:52:00,33.1,10.3,30.06,NNE,24,0.0,3.0,38,0.00,,,0.00,WeatherCatV1.11B39,2013-03-17 15:52:00,
2013-03-17 11:57:00,33.4,10.0,30.05,NNW,336,0.0,0.0,37,0.00,,,0.00,WeatherCatV1.11B39,2013-03-17 15:57:00,
2013-03-17 12:02:00,33.7,10.8,30.05,WNW,295,0.0,9.0,38,0.00,,,0.00,WeatherCatV1.11B39,2013-03-17 16:02:00,
2013-03-17 12:07:00,34.1,10.0,30.05,NNW,336,0.0,6.0,36,0.00,,,0.00,WeatherCatV1.11B39,2013-03-17 16:07:00,
2013-03-17 12:12:00,34.3,8.9,30.06,West,270,6.0,13.0,34,0.00,,,0.00,WeatherCatV1.11B39,2013-03-17 16:12:00,
2013-03-17 12:17:00,34.1,8.0,30.05,WNW,293,4.0,19.0,33,0.00,,,0.00,WeatherCatV1.11B39,2013-03-17 16:17:00,
2013-03-17 12:22:00,34.1,8.0,30.06,WNW,286,5.0,12.0,33,0.00,,,0.00,WeatherCatV1.11B39,2013-03-17 16:22:00,
2013-03-17 12:27:00,34.1,7.4,30.06,NNW,345,4.0,4.0,32,0.00,,,0.00,WeatherCatV1.11B39,2013-03-17 16:27:00,
2013-03-17 12:32:00,34.3,8.2,30.06,NNW,342,0.0,0.0,33,0.00,,,0.00,WeatherCatV1.11B39,2013-03-17 16:32:00,
2013-03-17 12:37:00,35.0,7.5,30.06,North,11,4.0,4.0,31,0.00,,,0.00,WeatherCatV1.11B39,2013-03-17 16:37:00,
2013-03-17 12:42:00,34.9,6.6,30.06,NW,308,0.0,8.0,30,0.00,,,0.00,WeatherCatV1.11B39,2013-03-17 16:42:00,
2013-03-17 12:47:00,35.1,5.3,30.06,WNW,302,1.0,3.0,28,0.00,,,0.00,WeatherCatV1.11B39,2013-03-17 16:47:00,
2013-03-17 12:52:00,35.5,7.2,30.06,WNW,300,0.0,1.0,30,0.00,,,0.00,WeatherCatV1.11B39,2013-03-17 16:52:00,
2013-03-17 12:57:00,35.3,7.0,30.06,WNW,287,4.0,10.0,30,0.00,,,0.00,WeatherCatV1.11B39,2013-03-17 16:57:00,
2013-03-17 13:02:00,35.4,5.6,30.06,West,263,0.0,11.0,28,0.00,,,0.00,WeatherCatV1.11B39,2013-03-17 17:02:00,
2013-03-17 13:07:00,35.7,7.3,30.06,WNW,294,0.0,7.0,30,0.00,,,0.00,WeatherCatV1.11B39,2013-03-17 17:07:00,
2013-03-17 13:12:00,35.9,6.0,30.06,NNE,30,0.0,0.0,28,0.00,,,0.00,WeatherCatV1.11B39,2013-03-17 17:12:00,
2013-03-17 13:17:00,35.8,5.1,30.06,WNW,297,3.0,4.0,27,0.00,,,0.00,WeatherCatV1.11B39,2013-03-17 17:17:00,
2013-03-17 13:22:00,36.4,7.2,30.06,WNW,294,0.0,0.0,29,0.00,,,0.00,WeatherCatV1.11B39,2013-03-17 17:22:00,
2013-03-17 13:27:00,37.1,7.0,30.06,West,276,0.0,0.0,28,0.00,,,0.00,WeatherCatV1.11B39,2013-03-17 17:27:00,
2013-03-17 13:32:00,37.1,6.2,30.06,WNW,295,0.0,0.0,27,0.00,,,0.00,WeatherCatV1.11B39,2013-03-17 17:32:00,
2013-03-17 13:37:00,36.8,6.0,30.06,NNE,19,0.0,0.0,27,0.00,,,0.00,WeatherCatV1.11B39,2013-03-17 17:37:00,
2013-03-17 13:42:00,36.4,4.8,30.06,NNE,20,0.0,5.0,26,0.00,,,0.00,WeatherCatV1.11B39,2013-03-17 17:42:00,
2013-03-17 13:47:00,36.1,6.2,30.06,North,8,0.0,0.0,28,0.00,,,0.00,WeatherCatV1.11B39,2013-03-17 17:47:00,
2013-03-17 13:52:00,36.0,5.3,30.06,WSW,255,0.0,7.0,27,0.00,,,0.00,WeatherCatV1.11B39,2013-03-17 17:52:00,
2013-03-17 13:57:00,36.2,6.3,30.06,WNW,285,10.0,10.0,28,0.00,,,0.00,WeatherCatV1.11B39,2013-03-17 17:57:00,
2013-03-17 14:02:00,36.0,5.3,30.06,WNW,302,0.0,6.0,27,0.00,,,0.00,WeatherCatV1.11B39,2013-03-17 18:02:00,
2013-03-17 14:07:00,35.8,5.9,30.06,NW,311,0.0,1.0,28,0.00,,,0.00,WeatherCatV1.11B39,2013-03-17 18:07:00,
2013-03-17 14:12:00,35.9,6.8,30.06,West,275,0.0,1.0,29,0.00,,,0.00,WeatherCatV1.11B39,2013-03-17 18:12:00,
2013-03-17 14:17:00,36.1,5.4,30.06,WNW,300,6.0,6.0,27,0.00,,,0.00,WeatherCatV1.11B39,2013-03-17 18:17:00,
2013-03-17 14:22:00,35.8,5.1,30.07,NW,304,0.0,6.0,27,0.00,,,0.00,WeatherCatV1.11B39,2013-03-17 18:22:00,
2013-03-17 14:27:00,35.9,6.0,30.06,NNE,30,4.0,7.0,28,0.00,,,0.00,WeatherCatV1.11B39,2013-03-17 18:27:00,
2013-03-17 14:32:00,35.7,5.0,30.07,NNW,337,1.0,1.0,27,0.00,,,0.00,WeatherCatV1.11B39,2013-03-17 18:32:00,
2013-03-17 14:37:00,35.7,5.0,30.06,WNW,289,0.0,7.0,27,0.00,,,0.00,WeatherCatV1.11B39,2013-03-17 18:37:00,
2013-03-17 14:42:00,36.1,5.4,30.06,WNW,294,8.0,14.0,27,0.00,,,0.00,WeatherCatV1.11B39,2013-03-17 18:42:00,
2013-03-17 14:47:00,35.5,4.9,30.07,North,355,0.0,0.0,27,0.00,,,0.00,WeatherCatV1.11B39,2013-03-17 18:47:00,
2013-03-17 14:52:00,35.8,5.1,30.07,North,9,0.0,5.0,27,0.00,,,0.00,WeatherCatV1.11B39,2013-03-17 18:52:00,
2013-03-17 14:57:00,35.9,5.2,30.07,NNE,28,0.0,3.0,27,0.00,,,0.00,WeatherCatV1.11B39,2013-03-17 18:57:00,
2013-03-17 15:02:00,35.4,4.8,30.07,North,6,0.0,1.0,27,0.00,,,0.00,WeatherCatV1.11B39,2013-03-17 19:02:00,
2013-03-17 15:07:00,35.2,5.4,30.07,NW,307,2.0,2.0,28,0.00,,,0.00,WeatherCatV1.11B39,2013-03-17 19:07:00,
2013-03-17 15:12:00,36.1,6.2,30.07,WNW,297,1.0,5.0,28,0.00,,,0.00,WeatherCatV1.11B39,2013-03-17 19:12:00,
2013-03-17 15:17:00,36.4,5.6,30.07,WNW,293,0.0,2.0,27,0.00,,,0.00,WeatherCatV1.11B39,2013-03-17 19:17:00,
2013-03-17 15:22:00,36.5,5.7,30.08,North,0,4.0,4.0,27,0.00,,,0.00,WeatherCatV1.11B39,2013-03-17 19:22:00,
2013-03-17 15:27:00,36.0,5.3,30.08,WNW,294,0.0,2.0,27,0.00,,,0.00,WeatherCatV1.11B39,2013-03-17 19:27:00,
2013-03-17 15:32:00,35.4,4.8,30.08,WNW,292,4.0,7.0,27,0.00,,,0.00,WeatherCatV1.11B39,2013-03-17 19:32:00,
2013-03-17 15:37:00,35.2,4.6,30.08,NNW,346,0.0,9.0,27,0.00,,,0.00,WeatherCatV1.11B39,2013-03-17 19:37:00,
2013-03-17 15:42:00,35.4,4.8,30.08,NNW,341,0.0,0.0,27,0.00,,,0.00,WeatherCatV1.11B39,2013-03-17 19:42:00,
2013-03-17 15:47:00,35.4,4.8,30.09,North,6,0.0,3.0,27,0.00,,,0.00,WeatherCatV1.11B39,2013-03-17 19:47:00,
2013-03-17 15:52:00,35.7,5.0,30.09,WNW,291,0.0,7.0,27,0.00,,,0.00,WeatherCatV1.11B39,2013-03-17 19:52:00,
2013-03-17 15:57:00,35.9,2.7,30.09,NW,309,0.0,2.0,24,0.00,,,0.00,WeatherCatV1.11B39,2013-03-17 19:57:00,
2013-03-17 16:02:00,36.4,4.8,30.09,NW,319,0.0,0.0,26,0.00,,,0.00,WeatherCatV1.11B39,2013-03-17 20:02:00,
2013-03-17 16:07:00,36.7,3.3,30.09,WNW,296,0.0,9.0,24,0.00,,,0.00,WeatherCatV1.11B39,2013-03-17 20:07:00,
2013-03-17 16:12:00,36.8,5.2,30.09,WNW,291,0.0,10.0,26,0.00,,,0.00,WeatherCatV1.11B39,2013-03-17 20:12:00,
2013-03-17 16:17:00,36.4,4.8,30.09,NW,304,0.0,9.0,26,0.00,,,0.00,WeatherCatV1.11B39,2013-03-17 20:17:00,
2013-03-17 16:22:00,36.4,4.0,30.10,WNW,300,0.0,3.0,25,0.00,,,0.00,WeatherCatV1.11B39,2013-03-17 20:22:00,
2013-03-17 16:27:00,36.2,2.9,30.10,WNW,294,0.0,7.0,24,0.00,,,0.00,WeatherCatV1.11B39,2013-03-17 20:27:00,
2013-03-17 16:32:00,36.2,2.9,30.10,North,351,0.0,5.0,24,0.00,,,0.00,WeatherCatV1.11B39,2013-03-17 20:32:00,
2013-03-17 16:37:00,35.9,2.7,30.10,NW,309,0.0,2.0,24,0.00,,,0.00,WeatherCatV1.11B39,2013-03-17 20:37:00,
2013-03-17 16:42:00,36.1,4.6,30.10,North,353,0.0,2.0,26,0.00,,,0.00,WeatherCatV1.11B39,2013-03-17 20:42:00,
2013-03-17 16:47:00,36.3,4.7,30.10,NNE,25,2.0,7.0,26,0.00,,,0.00,WeatherCatV1.11B39,2013-03-17 20:47:00,
2013-03-17 16:52:00,35.9,2.7,30.10,NW,304,0.0,6.0,24,0.00,,,0.00,WeatherCatV1.11B39,2013-03-17 20:52:00,
2013-03-17 16:57:00,35.1,2.0,30.10,NNW,337,0.0,7.0,24,0.00,,,0.00,WeatherCatV1.11B39,2013-03-17 20:57:00,
2013-03-17 17:02:00,35.0,1.9,30.11,WNW,287,2.0,5.0,24,0.00,,,0.00,WeatherCatV1.11B39,2013-03-17 21:02:00,
2013-03-17 17:07:00,34.6,1.6,30.11,West,274,3.0,11.0,24,0.00,,,0.00,WeatherCatV1.11B39,2013-03-17 21:07:00,
2013-03-17 17:12:00,34.4,3.1,30.11,West,281,10.0,12.0,26,0.00,,,0.00,WeatherCatV1.11B39,2013-03-17 21:12:00,
2013-03-17 17:17:00,34.0,2.8,30.11,WNW,295,12.0,14.0,26,0.00,,,0.00,WeatherCatV1.11B39,2013-03-17 21:17:00,
2013-03-17 17:22:00,33.8,0.9,30.12,NW,305,1.0,10.0,24,0.00,,,0.00,WeatherCatV1.11B39,2013-03-17 21:22:00,
2013-03-17 17:27:00,34.0,2.8,30.12,WNW,291,0.0,6.0,26,0.00,,,0.00,WeatherCatV1.11B39,2013-03-17 21:27:00,
2013-03-17 17:32:00,34.1,2.8,30.12,WNW,283,2.0,4.0,26,0.00,,,0.00,WeatherCatV1.11B39,2013-03-17 21:32:00,
2013-03-17 17:37:00,33.9,2.7,30.13,NW,305,0.0,0.0,26,0.00,,,0.00,WeatherCatV1.11B39,2013-03-17 21:37:00,
2013-03-17 17:42:00,34.0,2.8,30.13,North,351,0.0,3.0,26,0.00,,,0.00,WeatherCatV1.11B39,2013-03-17 21:42:00,
2013-03-17 17:47:00,34.0,2.8,30.13,NW,308,0.0,3.0,26,0.00,,,0.00,WeatherCatV1.11B39,2013-03-17 21:47:00,
2013-03-17 17:52:00,33.9,3.5,30.13,North,353,0.0,0.0,27,0.00,,,0.00,WeatherCatV1.11B39,2013-03-17 21:52:00,
2013-03-17 17:57:00,33.8,2.6,30.13,North,350,0.0,0.0,26,0.00,,,0.00,WeatherCatV1.11B39,2013-03-17 21:57:00,
2013-03-17 18:02:00,33.7,2.5,30.14,NNW,336,0.0,9.0,26,0.00,,,0.00,WeatherCatV1.11B39,2013-03-17 22:02:00,
2013-03-17 18:07:00,33.5,2.3,30.14,WNW,302,0.0,3.0,26,0.00,,,0.00,WeatherCatV1.11B39,2013-03-17 22:07:00,
2013-03-17 18:12:00,33.4,1.4,30.15,WNW,299,0.0,0.0,25,0.00,,,0.00,WeatherCatV1.11B39,2013-03-17 22:12:00,
2013-03-17 18:17:00,33.1,0.3,30.15,NNW,343,0.0,0.0,24,0.00,,,0.00,WeatherCatV1.11B39,2013-03-17 22:17:00,
2013-03-17 18:22:00,32.9,2.6,30.15,West,280,1.0,6.0,27,0.00,,,0.00,WeatherCatV1.11B39,2013-03-17 22:22:00,
2013-03-17 18:27:00,32.6,1.6,30.15,NNE,28,0.0,0.0,26,0.00,,,0.00,WeatherCatV1.11B39,2013-03-17 22:27:00,
2013-03-17 18:32:00,32.4,1.4,30.16,NNE,12,0.0,0.0,26,0.00,,,0.00,WeatherCatV1.11B39,2013-03-17 22:32:00,
2013-03-17 18:37:00,32.3,1.3,30.16,NNW,348,0.0,0.0,26,0.00,,,0.00,WeatherCatV1.11B39,2013-03-17 22:37:00,
2013-03-17 18:42:00,32.1,1.9,30.16,NW,324,0.0,0.0,27,0.00,,,0.00,WeatherCatV1.11B39,2013-03-17 22:42:00,
2013-03-17 18:47:00,32.0,1.0,30.16,WNW,300,1.0,5.0,26,0.00,,,0.00,WeatherCatV1.11B39,2013-03-17 22:47:00,
2013-03-17 18:52:00,31.7,0.8,30.17,NNE,18,0.0,1.0,26,0.00,,,0.00,WeatherCatV1.11B39,2013-03-17 22:52:00,
2013-03-17 18:57:00,31.6,0.7,30.17,WNW,302,0.0,0.0,26,0.00,,,0.00,WeatherCatV1.11B39,2013-03-17 22:57:00,
2013-03-17 19:02:00,31.4,0.5,30.17,NW,311,0.0,0.0,26,0.00,,,0.00,WeatherCatV1.11B39,2013-03-17 23:02:00,
2013-03-17 19:07:00,31.3,1.2,30.18,NNW,338,0.0,0.0,27,0.00,,,0.00,WeatherCatV1.11B39,2013-03-17 23:07:00,
2013-03-17 19:12:00,31.1,1.1,30.18,WNW,298,0.0,0.0,27,0.00,,,0.00,WeatherCatV1.11B39,2013-03-17 23:12:00,
2013-03-17 19:17:00,31.0,1.0,30.18,WNW,299,0.0,0.0,27,0.00,,,0.00,WeatherCatV1.11B39,2013-03-17 23:17:00,
2013-03-17 19:22:00,30.8,0.8,30.19,WNW,301,0.0,0.0,27,0.00,,,0.00,WeatherCatV1.11B39,2013-03-17 23:22:00,
2013-03-17 19:27:00,30.7,1.5,30.19,WNW,301,0.0,0.0,28,0.00,,,0.00,WeatherCatV1.11B39,2013-03-17 23:27:00,
2013-03-17 19:32:00,30.5,0.6,30.19,WNW,301,0.0,0.0,27,0.00,,,0.00,WeatherCatV1.11B39,2013-03-17 23:32:00,
2013-03-17 19:37:00,30.4,0.5,30.20,WNW,301,0.0,0.0,27,0.00,,,0.00,WeatherCatV1.11B39,2013-03-17 23:37:00,
2013-03-17 19:42:00,30.2,0.3,30.20,WNW,301,0.0,0.0,27,0.00,,,0.00,WeatherCatV1.11B39,2013-03-17 23:42:00,
2013-03-17 19:47:00,30.1,1.0,30.20,WNW,301,0.0,0.0,28,0.00,,,0.00,WeatherCatV1.11B39,2013-03-17 23:47:00,
2013-03-17 19:52:00,29.8,0.7,30.21,WNW,301,0.0,0.0,28,0.00,,,0.00,WeatherCatV1.11B39,2013-03-17 23:52:00,
2013-03-17 19:57:00,29.6,0.5,30.21,WNW,301,0.0,0.0,28,0.00,,,0.00,WeatherCatV1.11B39,2013-03-17 23:57:00,
2013-03-17 20:02:00,29.5,1.2,30.21,WNW,301,0.0,0.0,29,0.00,,,0.00,WeatherCatV1.11B39,2013-03-18 00:02:00,
2013-03-17 20:07:00,29.1,0.9,30.22,WNW,301,0.0,0.0,29,0.00,,,0.00,WeatherCatV1.11B39,2013-03-18 00:07:00,
2013-03-17 20:12:00,29.0,1.5,30.22,WNW,303,0.0,0.0,30,0.00,,,0.00,WeatherCatV1.11B39,2013-03-18 00:12:00,
2013-03-17 20:17:00,29.0,1.5,30.22,NW,304,0.0,0.0,30,0.00,,,0.00,WeatherCatV1.11B39,2013-03-18 00:17:00,
2013-03-17 20:22:00,29.0,2.2,30.23,NW,304,0.0,0.0,31,0.00,,,0.00,WeatherCatV1.11B39,2013-03-18 00:22:00,
2013-03-17 20:27:00,28.9,1.4,30.23,NW,306,0.0,0.0,30,0.00,,,0.00,WeatherCatV1.11B39,2013-03-18 00:27:00,
2013-03-17 20:32:00,28.7,2.6,30.23,NW,311,0.0,0.0,32,0.00,,,0.00,WeatherCatV1.11B39,2013-03-18 00:32:00,
2013-03-17 20:37:00,28.6,2.5,30.23,NW,316,0.0,0.0,32,0.00,,,0.00,WeatherCatV1.11B39,2013-03-18 00:37:00,
2013-03-17 20:42:00,28.6,2.5,30.24,NW,316,0.0,0.0,32,0.00,,,0.00,WeatherCatV1.11B39,2013-03-18 00:42:00,
2013-03-17 20:47:00,28.4,3.0,30.24,NW,316,0.0,0.0,33,0.00,,,0.00,WeatherCatV1.11B39,2013-03-18 00:47:00,
2013-03-17 20:52:00,28.4,3.0,30.24,NW,316,0.0,0.0,33,0.00,,,0.00,WeatherCatV1.11B39,2013-03-18 00:52:00,
2013-03-17 20:57:00,28.3,3.6,30.25,NW,316,0.0,0.0,34,0.00,,,0.00,WeatherCatV1.11B39,2013-03-18 00:57:00,
2013-03-17 21:02:00,28.1,3.4,30.25,NW,316,0.0,0.0,34,0.00,,,0.00,WeatherCatV1.11B39,2013-03-18 01:02:00,
2013-03-17 21:07:00,28.1,2.7,30.25,NW,316,0.0,0.0,33,0.00,,,0.00,WeatherCatV1.11B39,2013-03-18 01:07:00,
2013-03-17 21:12:00,28.1,2.7,30.25,NW,324,0.0,0.0,33,0.00,,,0.00,WeatherCatV1.11B39,2013-03-18 01:12:00,
2013-03-17 21:17:00,28.0,2.7,30.26,North,355,0.0,0.0,33,0.00,,,0.00,WeatherCatV1.11B39,2013-03-18 01:17:00,
2013-03-17 21:22:00,28.0,2.7,30.26,North,355,0.0,0.0,33,0.00,,,0.00,WeatherCatV1.11B39,2013-03-18 01:22:00,
2013-03-17 21:27:00,27.8,3.1,30.26,North,355,0.0,0.0,34,0.00,,,0.00,WeatherCatV1.11B39,2013-03-18 01:27:00,
2013-03-17 21:32:00,27.7,3.0,30.26,North,355,0.0,0.0,34,0.00,,,0.00,WeatherCatV1.11B39,2013-03-18 01:32:00,
2013-03-17 21:37:00,27.6,3.6,30.27,North,355,0.0,0.0,35,0.00,,,0.00,WeatherCatV1.11B39,2013-03-18 01:37:00,
2013-03-17 21:42:00,27.3,3.9,30.27,North,355,0.0,0.0,36,0.00,,,0.00,WeatherCatV1.11B39,2013-03-18 01:42:00,
2013-03-17 21:47:00,27.1,3.7,30.27,North,354,0.0,0.0,36,0.00,,,0.00,WeatherCatV1.11B39,2013-03-18 01:47:00,
2013-03-17 21:52:00,27.0,2.4,30.28,NE,42,0.0,0.0,34,0.00,,,0.00,WeatherCatV1.11B39,2013-03-18 01:52:00,
2013-03-17 21:57:00,27.0,2.4,30.28,North,349,0.0,0.0,34,0.00,,,0.00,WeatherCatV1.11B39,2013-03-18 01:57:00,
2013-03-17 22:02:00,27.0,2.4,30.28,North,350,0.0,0.0,34,0.00,,,0.00,WeatherCatV1.11B39,2013-03-18 02:02:00,
2013-03-17 22:07:00,26.8,2.2,30.29,NNW,348,0.0,0.0,34,0.00,,,0.00,WeatherCatV1.11B39,2013-03-18 02:07:00,
2013-03-17 22:12:00,26.8,2.2,30.29,NNW,348,0.0,0.0,34,0.00,,,0.00,WeatherCatV1.11B39,2013-03-18 02:12:00,
2013-03-17 22:17:00,26.7,2.1,30.29,North,351,0.0,0.0,34,0.00,,,0.00,WeatherCatV1.11B39,2013-03-18 02:17:00,
2013-03-17 22:22:00,26.5,2.0,30.29,North,351,0.0,0.0,34,0.00,,,0.00,WeatherCatV1.11B39,2013-03-18 02:22:00,
2013-03-17 22:27:00,26.4,1.2,30.30,North,351,0.0,0.0,33,0.00,,,0.00,WeatherCatV1.11B39,2013-03-18 02:27:00,
2013-03-17 22:32:00,26.4,1.9,30.30,North,351,0.0,0.0,34,0.00,,,0.00,WeatherCatV1.11B39,2013-03-18 02:32:00,
2013-03-17 22:37:00,26.2,1.7,30.30,North,351,0.0,0.0,34,0.00,,,0.00,WeatherCatV1.11B39,2013-03-18 02:37:00,
2013-03-17 22:42:00,26.1,1.6,30.30,North,351,0.0,0.0,34,0.00,,,0.00,WeatherCatV1.11B39,2013-03-18 02:42:00,
2013-03-17 22:47:00,25.9,1.4,30.31,North,351,0.0,0.0,34,0.00,,,0.00,WeatherCatV1.11B39,2013-03-18 02:47:00,
2013-03-17 22:52:00,25.6,1.2,30.31,North,351,0.0,0.0,34,0.00,,,0.00,WeatherCatV1.11B39,2013-03-18 02:52:00,
2013-03-17 22:57:00,25.5,1.1,30.31,North,351,0.0,0.0,34,0.00,,,0.00,WeatherCatV1.11B39,2013-03-18 02:57:00,
2013-03-17 23:02:00,25.3,1.5,30.31,North,351,0.0,0.0,35,0.00,,,0.00,WeatherCatV1.11B39,2013-03-18 03:02:00,
2013-03-17 23:07:00,25.2,0.8,30.32,North,351,0.0,0.0,34,0.00,,,0.00,WeatherCatV1.11B39,2013-03-18 03:07:00,
2013-03-17 23:12:00,25.0,1.3,30.31,North,351,0.0,0.0,35,0.00,,,0.00,WeatherCatV1.11B39,2013-03-18 03:12:00,
2013-03-17 23:17:00,25.0,1.3,30.32,North,351,0.0,0.0,35,0.00,,,0.00,WeatherCatV1.11B39,2013-03-18 03:17:00,
2013-03-17 23:22:00,24.9,1.8,30.32,North,351,0.0,0.0,36,0.00,,,0.00,WeatherCatV1.11B39,2013-03-18 03:22:00,
2013-03-17 23:27:00,24.7,1.6,30.32,North,351,0.0,0.0,36,0.00,,,0.00,WeatherCatV1.11B39,2013-03-18 03:27:00,
2013-03-17 23:32:00,24.6,2.1,30.32,North,356,0.0,0.0,37,0.00,,,0.00,WeatherCatV1.11B39,2013-03-18 03:32:00,
2013-03-17 23:37:00,24.4,0.7,30.33,North,356,0.0,0.0,35,0.00,,,0.00,WeatherCatV1.11B39,2013-03-18 03:37:00,
2013-03-17 23:42:00,24.3,0.0,30.33,North,356,0.0,0.0,34,0.00,,,0.00,WeatherCatV1.11B39,2013-03-18 03:42:00,
2013-03-17 23:47:00,24.3,0.6,30.33,North,1,0.0,0.0,35,0.00,,,0.00,WeatherCatV1.11B39,2013-03-18 03:47:00,
2013-03-17 23:52:00,24.0,1.0,30.33,North,0,0.0,0.0,36,0.00,,,0.00,WeatherCatV1.11B39,2013-03-18 03:52:00,
2013-03-17 23:57:00,23.9,2.0,30.33,NE,38,0.0,0.0,38,0.00,,,0.00,WeatherCatV1.11B39,2013-03-18 03:57:00,